Weather in Solontsy

Russia / Khabarovsk Krai     52°15′12″N   140°14′43″E
temp.,
°C
wind,
m/s
gust,
m/s
humid.,
%
clouds,
%
prec.,
mm/h
press.,
hPa
HPBL,
m
27 february, sat
sat2701:00−22n119239 0.0 102820
04:00−23ene019124 0.0 102920
07:00−24sse119222 0.0 102920
10:00−19sse129011 0.0 1028194
13:00−14s238491 0.0 1027413
16:00−12sse138495 0.0 1024532
19:00−15se2295100 0.0 102428
22:00−16ese1293100 0.1 102125
28 february, sun
sun2801:00−14ene1192100 0.0 101737
04:00−13ese1197100 0.5 101327
07:00−13w1197100 1.0 101121
10:00−11wsw139299 1.3 1010270
13:00−8w348177 0.1 1010699
16:00−9nnw248188 0.2 1011631
19:00−16n378899 0.0 1014223
22:00−21n229089 0.0 101654
1 march, mon
mon101:00−23nw12930 0.0 101728
04:00−24w11960 0.0 101920
07:00−24w019817 0.0 102020
10:00−18nw278122 0.1 1022645
13:00−15wnw477395 0.0 10221390
16:00−15w238098 0.2 1022830
19:00−17wsw1296100 0.3 102477
22:00−21nw0195100 0.3 102420
2 march, tue
tue201:00−24n119698 0.0 102520
04:00−24se119799 0.1 102627
07:00−26sse129999 0.0 102723
10:00−23s2291100 0.1 1027251
13:00−20sw257348 0.0 1027760
16:00−18wsw256660 0.0 10271404
19:00−21wsw1290100 0.0 102720
22:00−26sw118467 0.0 102819
3 march, wed
wed301:00−28s11870 0.0 102719
04:00−30ese11890 0.0 102719
07:00−31se01930 0.0 102619
10:00−25ssw12860 0.0 1025213
13:00−19ssw23750 0.0 1022424
16:00−17sse13800 0.0 1019408
19:00−21e229451 0.0 101720
22:00−22ese119341 0.0 101620